Consulta, visualización y exportación
Histórico de datos
Filtra por dispositivo y rango de fechas para inspeccionar el comportamiento de los data loggers, visualizar tendencias y descargar los resultados como CSV.
Tendencias del filtro actual
Gráficas del histórico
Cargando datos para la gráfica…
Temperatura y humedad
Batería y lluvia
| ID | Dispositivo | Fecha | Hora | sysDT | Temperatura 1 | Temperatura 2 | Humedad | Batería | Nivel de lluvia |
|---|---|---|---|---|---|---|---|---|---|
| 13037 | ciricote11 | 2026-05-06 | 03:16:10 | 2026-05-06 09:16:10 | 26.1 | 26.1 | 95.5 | 4.02 | 0.0 |
| 13036 | ciricote12 | 2026-05-06 | 03:16:06 | 2026-05-06 09:16:06 | 26.0 | 26.0 | 92.5 | 3.99 | 50.0 |
| 13035 | ciricote1 | 2026-05-06 | 03:15:51 | 2026-05-06 09:15:51 | 25.9 | 26.2 | 98.0 | 4.2 | 1.0 |
| 13034 | ciricote11 | 2026-05-06 | 03:01:11 | 2026-05-06 09:01:11 | 26.3 | 26.2 | 94.5 | 4.02 | 0.0 |
| 13033 | ciricote12 | 2026-05-06 | 03:00:54 | 2026-05-06 09:00:54 | 26.1 | 26.2 | 91.5 | 3.99 | 50.0 |
| 13032 | ciricote1 | 2026-05-06 | 03:00:51 | 2026-05-06 09:00:51 | 26.0 | 26.3 | 97.0 | 4.2 | 1.0 |
| 13031 | ciricote11 | 2026-05-06 | 02:46:10 | 2026-05-06 08:46:10 | 26.3 | 26.3 | 93.0 | 4.02 | 0.0 |
| 13030 | ciricote12 | 2026-05-06 | 02:46:06 | 2026-05-06 08:46:06 | 26.3 | 26.3 | 90.0 | 3.99 | 50.0 |
| 13029 | ciricote1 | 2026-05-06 | 02:45:44 | 2026-05-06 08:45:44 | 26.1 | 26.5 | 96.0 | 4.2 | 1.0 |
| 13028 | ciricote12 | 2026-05-06 | 02:30:59 | 2026-05-06 08:30:59 | 26.4 | 26.4 | 89.0 | 3.99 | 50.0 |
| 13027 | ciricote11 | 2026-05-06 | 02:30:47 | 2026-05-06 08:30:47 | 26.5 | 26.4 | 92.0 | 4.02 | 0.0 |
| 13026 | ciricote1 | 2026-05-06 | 02:30:44 | 2026-05-06 08:30:44 | 26.3 | 26.5 | 94.5 | 4.2 | 1.0 |
| 13025 | ciricote11 | 2026-05-06 | 02:16:10 | 2026-05-06 08:16:10 | 26.6 | 26.6 | 90.5 | 4.02 | 0.0 |
| 13024 | ciricote12 | 2026-05-06 | 02:15:59 | 2026-05-06 08:15:59 | 26.6 | 26.6 | 87.5 | 3.99 | 50.0 |
| 13023 | ciricote1 | 2026-05-06 | 02:15:44 | 2026-05-06 08:15:44 | 26.5 | 26.7 | 93.0 | 4.2 | 1.0 |
| 13022 | ciricote11 | 2026-05-06 | 02:01:10 | 2026-05-06 08:01:10 | 26.9 | 26.8 | 88.5 | 4.02 | 0.0 |
| 13021 | ciricote1 | 2026-05-06 | 02:01:07 | 2026-05-06 08:01:07 | 26.6 | 26.9 | 91.0 | 4.2 | 1.0 |
| 13020 | ciricote12 | 2026-05-06 | 02:00:52 | 2026-05-06 08:00:52 | 26.8 | 26.8 | 86.0 | 3.99 | 50.0 |
| 13019 | ciricote11 | 2026-05-06 | 01:46:10 | 2026-05-06 07:46:10 | 27.1 | 27.0 | 87.5 | 4.02 | 0.0 |
| 13018 | ciricote1 | 2026-05-06 | 01:46:07 | 2026-05-06 07:46:07 | 26.8 | 27.1 | 90.0 | 4.2 | 1.0 |
| 13017 | ciricote12 | 2026-05-06 | 01:45:52 | 2026-05-06 07:45:52 | 27.0 | 27.0 | 84.5 | 3.99 | 50.0 |
| 13016 | ciricote11 | 2026-05-06 | 01:31:03 | 2026-05-06 07:31:03 | 27.2 | 27.1 | 87.0 | 4.02 | 0.0 |
| 13015 | ciricote1 | 2026-05-06 | 01:31:00 | 2026-05-06 07:31:00 | 27.0 | 27.2 | 89.5 | 4.2 | 1.0 |
| 13014 | ciricote12 | 2026-05-06 | 01:30:47 | 2026-05-06 07:30:47 | 27.0 | 27.1 | 84.5 | 3.99 | 50.0 |
| 13013 | ciricote11 | 2026-05-06 | 01:16:03 | 2026-05-06 07:16:03 | 27.3 | 27.2 | 86.0 | 4.02 | 0.0 |
| 13012 | ciricote1 | 2026-05-06 | 01:16:00 | 2026-05-06 07:16:00 | 27.1 | 27.4 | 88.5 | 4.2 | 1.0 |
| 13011 | ciricote12 | 2026-05-06 | 01:15:45 | 2026-05-06 07:15:45 | 27.2 | 27.3 | 83.0 | 3.99 | 50.0 |
| 13010 | ciricote11 | 2026-05-06 | 01:01:03 | 2026-05-06 07:01:03 | 27.5 | 27.4 | 84.5 | 4.02 | 0.0 |
| 13009 | ciricote1 | 2026-05-06 | 01:00:53 | 2026-05-06 07:00:53 | 27.2 | 27.6 | 87.0 | 4.2 | 1.0 |
| 13008 | ciricote12 | 2026-05-06 | 01:00:45 | 2026-05-06 07:00:45 | 27.4 | 27.4 | 81.5 | 3.99 | 50.0 |
| 13007 | ciricote11 | 2026-05-06 | 00:45:56 | 2026-05-06 06:45:56 | 27.6 | 27.7 | 82.5 | 4.02 | 0.0 |
| 13006 | ciricote1 | 2026-05-06 | 00:45:53 | 2026-05-06 06:45:53 | 27.5 | 27.8 | 85.0 | 4.2 | 1.0 |
| 13005 | ciricote12 | 2026-05-06 | 00:45:45 | 2026-05-06 06:45:45 | 27.6 | 27.6 | 80.0 | 3.99 | 50.0 |
| 13004 | ciricote11 | 2026-05-06 | 00:30:56 | 2026-05-06 06:30:56 | 27.8 | 27.8 | 81.5 | 4.02 | 0.0 |
| 13003 | ciricote1 | 2026-05-06 | 00:30:46 | 2026-05-06 06:30:46 | 27.5 | 27.9 | 84.0 | 4.2 | 1.0 |
| 13002 | ciricote12 | 2026-05-06 | 00:30:40 | 2026-05-06 06:30:40 | 27.7 | 27.7 | 79.0 | 3.99 | 50.0 |
| 13001 | ciricote1 | 2026-05-06 | 00:15:46 | 2026-05-06 06:15:46 | 27.7 | 28.0 | 83.0 | 4.2 | 1.0 |
| 13000 | ciricote11 | 2026-05-06 | 00:15:42 | 2026-05-06 06:15:42 | 28.0 | 27.9 | 80.5 | 4.02 | 0.0 |
| 12999 | ciricote12 | 2026-05-06 | 00:15:38 | 2026-05-06 06:15:38 | 27.8 | 27.9 | 77.5 | 3.99 | 50.0 |
| 12998 | ciricote1 | 2026-05-06 | 00:01:09 | 2026-05-06 06:01:09 | 27.9 | 28.2 | 81.5 | 4.2 | 1.0 |
| 12997 | ciricote11 | 2026-05-06 | 00:01:06 | 2026-05-06 06:01:06 | 28.1 | 28.1 | 79.0 | 4.02 | 0.0 |
| 12996 | ciricote12 | 2026-05-06 | 00:01:01 | 2026-05-06 06:01:01 | 28.1 | 28.1 | 76.5 | 3.99 | 50.0 |
| 12995 | ciricote11 | 2026-05-05 | 23:46:05 | 2026-05-06 05:46:05 | 28.4 | 28.4 | 77.0 | 4.02 | 0.0 |
| 12994 | ciricote1 | 2026-05-05 | 23:46:02 | 2026-05-06 05:46:02 | 28.1 | 28.5 | 79.0 | 4.21 | 1.0 |
| 12993 | ciricote12 | 2026-05-05 | 23:46:01 | 2026-05-06 05:46:01 | 28.3 | 28.4 | 74.5 | 3.99 | 50.0 |
| 12992 | ciricote12 | 2026-05-05 | 23:31:03 | 2026-05-06 05:31:03 | 28.7 | 28.7 | 72.0 | 3.99 | 50.0 |
| 12991 | ciricote11 | 2026-05-05 | 23:30:58 | 2026-05-06 05:30:58 | 28.8 | 28.8 | 74.5 | 4.02 | 0.0 |
| 12990 | ciricote1 | 2026-05-05 | 23:30:56 | 2026-05-06 05:30:56 | 28.6 | 28.9 | 76.5 | 4.21 | 1.0 |
| 12989 | ciricote12 | 2026-05-05 | 23:15:54 | 2026-05-06 05:15:54 | 29.0 | 29.0 | 71.0 | 3.99 | 50.0 |
| 12988 | ciricote11 | 2026-05-05 | 23:15:51 | 2026-05-06 05:15:51 | 29.0 | 29.0 | 73.5 | 4.02 | 0.0 |
| 12987 | ciricote1 | 2026-05-05 | 23:15:48 | 2026-05-06 05:15:48 | 28.8 | 29.2 | 75.5 | 4.21 | 1.0 |
| 12986 | ciricote1 | 2026-05-05 | 23:01:11 | 2026-05-06 05:01:11 | 29.1 | 29.5 | 73.5 | 4.21 | 1.0 |
| 12985 | ciricote12 | 2026-05-05 | 23:00:54 | 2026-05-06 05:00:54 | 29.3 | 29.3 | 69.5 | 3.99 | 50.0 |
| 12984 | ciricote11 | 2026-05-05 | 23:00:44 | 2026-05-06 05:00:44 | 29.3 | 29.4 | 71.0 | 4.02 | 0.0 |
| 12983 | ciricote11 | 2026-05-05 | 22:46:07 | 2026-05-06 04:46:07 | 29.8 | 29.7 | 69.0 | 4.02 | 0.0 |
| 12982 | ciricote1 | 2026-05-05 | 22:46:04 | 2026-05-06 04:46:04 | 29.5 | 29.9 | 71.0 | 4.21 | 1.0 |
| 12981 | ciricote12 | 2026-05-05 | 22:45:47 | 2026-05-06 04:45:47 | 29.7 | 29.6 | 67.0 | 3.99 | 50.0 |
| 12980 | ciricote11 | 2026-05-05 | 22:31:07 | 2026-05-06 04:31:07 | 30.1 | 30.1 | 68.0 | 4.02 | 0.0 |
| 12979 | ciricote1 | 2026-05-05 | 22:30:57 | 2026-05-06 04:30:57 | 29.9 | 30.2 | 70.0 | 4.21 | 1.0 |
| 12978 | ciricote12 | 2026-05-05 | 22:30:47 | 2026-05-06 04:30:47 | 30.0 | 30.0 | 66.5 | 3.99 | 50.0 |
| 12977 | ciricote11 | 2026-05-05 | 22:16:00 | 2026-05-06 04:16:00 | 30.4 | 30.3 | 66.5 | 4.02 | 0.0 |
| 12976 | ciricote1 | 2026-05-05 | 22:15:50 | 2026-05-06 04:15:50 | 30.1 | 30.4 | 68.5 | 4.21 | 1.0 |
| 12975 | ciricote12 | 2026-05-05 | 22:15:47 | 2026-05-06 04:15:47 | 30.3 | 30.3 | 65.5 | 3.99 | 50.0 |
| 12974 | ciricote11 | 2026-05-05 | 22:01:00 | 2026-05-06 04:01:00 | 30.7 | 30.7 | 65.5 | 4.02 | 0.0 |
| 12973 | ciricote1 | 2026-05-05 | 22:00:43 | 2026-05-06 04:00:43 | 30.5 | 30.7 | 67.5 | 4.21 | 1.0 |
| 12972 | ciricote12 | 2026-05-05 | 22:00:40 | 2026-05-06 04:00:40 | 30.6 | 30.6 | 64.5 | 3.99 | 50.0 |
| 12971 | ciricote1 | 2026-05-05 | 21:46:06 | 2026-05-06 03:46:06 | 30.8 | 31.0 | 67.0 | 4.21 | 1.0 |
| 12970 | ciricote11 | 2026-05-05 | 21:45:53 | 2026-05-06 03:45:54 | 31.0 | 31.0 | 65.0 | 4.02 | 0.0 |
| 12969 | ciricote12 | 2026-05-05 | 21:45:40 | 2026-05-06 03:45:40 | 31.0 | 30.9 | 63.5 | 3.99 | 50.0 |
| 12968 | ciricote1 | 2026-05-05 | 21:30:59 | 2026-05-06 03:30:59 | 31.1 | 31.4 | 66.0 | 4.21 | 1.0 |
| 12967 | ciricote11 | 2026-05-05 | 21:30:53 | 2026-05-06 03:30:53 | 31.4 | 31.3 | 64.0 | 4.02 | 0.0 |
| 12966 | ciricote12 | 2026-05-05 | 21:30:40 | 2026-05-06 03:30:40 | 31.3 | 31.2 | 63.0 | 3.99 | 50.0 |
| 12965 | ciricote1 | 2026-05-05 | 21:15:59 | 2026-05-06 03:15:59 | 31.5 | 31.7 | 65.0 | 4.21 | 1.0 |
| 12964 | ciricote11 | 2026-05-05 | 21:15:46 | 2026-05-06 03:15:46 | 31.7 | 31.6 | 63.0 | 4.02 | 0.0 |
| 12963 | ciricote12 | 2026-05-05 | 21:15:40 | 2026-05-06 03:15:40 | 31.6 | 31.7 | 63.0 | 3.99 | 50.0 |
| 12962 | ciricote1 | 2026-05-05 | 21:00:59 | 2026-05-06 03:00:59 | 32.0 | 32.2 | 64.0 | 4.21 | 1.0 |
| 12961 | ciricote11 | 2026-05-05 | 21:00:46 | 2026-05-06 03:00:46 | 32.3 | 32.1 | 62.0 | 4.02 | 0.0 |
| 12960 | ciricote12 | 2026-05-05 | 21:00:40 | 2026-05-06 03:00:40 | 32.1 | 32.1 | 62.0 | 3.99 | 50.0 |
| 12959 | ciricote11 | 2026-05-05 | 20:46:00 | 2026-05-06 02:46:00 | 32.6 | 32.6 | 61.0 | 4.02 | 0.0 |
| 12958 | ciricote1 | 2026-05-05 | 20:45:50 | 2026-05-06 02:45:50 | 32.4 | 32.7 | 63.0 | 4.21 | 1.0 |
| 12957 | ciricote12 | 2026-05-05 | 20:45:40 | 2026-05-06 02:45:40 | 32.6 | 32.6 | 61.0 | 3.99 | 50.0 |
| 12956 | ciricote11 | 2026-05-05 | 20:31:00 | 2026-05-06 02:31:00 | 32.4 | 31.7 | 66.5 | 4.02 | 0.0 |
| 12955 | ciricote1 | 2026-05-05 | 20:30:50 | 2026-05-06 02:30:50 | 32.0 | 31.7 | 69.0 | 4.21 | 1.0 |
| 12954 | ciricote12 | 2026-05-05 | 20:30:47 | 2026-05-06 02:30:47 | 32.1 | 31.7 | 65.5 | 3.99 | 50.0 |
| 12953 | ciricote11 | 2026-05-05 | 20:16:00 | 2026-05-06 02:16:00 | 31.0 | 30.9 | 73.5 | 4.02 | 0.0 |
| 12952 | ciricote1 | 2026-05-05 | 20:15:50 | 2026-05-06 02:15:50 | 30.8 | 31.0 | 76.0 | 4.21 | 1.0 |
| 12951 | ciricote12 | 2026-05-05 | 20:15:40 | 2026-05-06 02:15:40 | 31.0 | 30.9 | 71.5 | 3.99 | 50.0 |
| 12950 | ciricote11 | 2026-05-05 | 20:00:53 | 2026-05-06 02:00:53 | 30.9 | 30.9 | 73.5 | 4.02 | 0.0 |
| 12949 | ciricote1 | 2026-05-05 | 20:00:43 | 2026-05-06 02:00:43 | 30.7 | 31.0 | 76.5 | 4.21 | 1.0 |
| 12948 | ciricote12 | 2026-05-05 | 20:00:40 | 2026-05-06 02:00:40 | 31.0 | 30.9 | 71.5 | 3.99 | 50.0 |
| 12947 | ciricote1 | 2026-05-05 | 19:46:06 | 2026-05-06 01:46:06 | 30.9 | 31.2 | 75.0 | 4.21 | 1.0 |
| 12946 | ciricote11 | 2026-05-05 | 19:45:53 | 2026-05-06 01:45:53 | 31.1 | 31.1 | 73.0 | 4.03 | 0.0 |
| 12945 | ciricote1 | 2026-05-05 | 19:30:59 | 2026-05-06 01:30:59 | 31.1 | 31.5 | 73.5 | 4.21 | 1.0 |
| 12944 | ciricote12 | 2026-05-05 | 19:30:56 | 2026-05-06 01:30:56 | 31.3 | 31.4 | 69.5 | 3.99 | 50.0 |
| 12943 | ciricote11 | 2026-05-05 | 19:30:46 | 2026-05-06 01:30:46 | 31.3 | 31.4 | 71.5 | 4.03 | 0.0 |
| 12942 | ciricote12 | 2026-05-05 | 19:15:56 | 2026-05-06 01:15:56 | 31.6 | 31.7 | 68.0 | 3.99 | 50.0 |
| 12941 | ciricote1 | 2026-05-05 | 19:15:52 | 2026-05-06 01:15:52 | 31.4 | 31.8 | 71.5 | 4.21 | 1.0 |
| 12940 | ciricote11 | 2026-05-05 | 19:15:46 | 2026-05-06 01:15:46 | 31.6 | 31.7 | 69.5 | 4.03 | 0.0 |
| 12939 | ciricote11 | 2026-05-05 | 19:01:09 | 2026-05-06 01:01:09 | 32.0 | 32.0 | 68.0 | 4.03 | 0.0 |
| 12938 | ciricote12 | 2026-05-05 | 19:01:03 | 2026-05-06 01:01:03 | 32.0 | 32.0 | 66.5 | 3.99 | 50.0 |
| 12937 | ciricote1 | 2026-05-05 | 19:00:45 | 2026-05-06 01:00:45 | 31.8 | 32.1 | 70.0 | 4.21 | 1.0 |
| 12936 | ciricote11 | 2026-05-05 | 18:46:09 | 2026-05-06 00:46:09 | 32.3 | 32.4 | 66.0 | 4.03 | 0.0 |
| 12935 | ciricote12 | 2026-05-05 | 18:46:03 | 2026-05-06 00:46:03 | 32.4 | 32.5 | 64.5 | 3.99 | 50.0 |
| 12934 | ciricote1 | 2026-05-05 | 18:46:01 | 2026-05-06 00:46:01 | 32.1 | 32.5 | 67.5 | 4.21 | 1.0 |
| 12933 | ciricote11 | 2026-05-05 | 18:31:09 | 2026-05-06 00:31:09 | 32.8 | 32.8 | 63.5 | 4.03 | 0.0 |
| 12932 | ciricote12 | 2026-05-05 | 18:31:03 | 2026-05-06 00:31:03 | 32.8 | 32.9 | 63.0 | 3.99 | 50.0 |
| 12931 | ciricote1 | 2026-05-05 | 18:30:47 | 2026-05-06 00:30:47 | 32.6 | 32.9 | 65.5 | 4.21 | 1.0 |
| 12930 | ciricote11 | 2026-05-05 | 18:16:09 | 2026-05-06 00:16:09 | 33.1 | 33.1 | 63.0 | 4.03 | 0.0 |
| 12929 | ciricote1 | 2026-05-05 | 18:16:03 | 2026-05-06 00:16:03 | 32.9 | 33.2 | 65.0 | 4.21 | 1.0 |
| 12928 | ciricote12 | 2026-05-05 | 18:16:03 | 2026-05-06 00:16:03 | 33.1 | 33.2 | 62.5 | 3.99 | 50.0 |
| 12927 | ciricote11 | 2026-05-05 | 18:01:02 | 2026-05-06 00:01:02 | 33.6 | 33.7 | 61.0 | 4.03 | 0.0 |
| 12926 | ciricote12 | 2026-05-05 | 18:00:56 | 2026-05-06 00:00:56 | 33.6 | 33.7 | 60.5 | 3.99 | 50.0 |
| 12925 | ciricote1 | 2026-05-05 | 18:00:42 | 2026-05-06 00:00:42 | 33.3 | 33.8 | 63.0 | 4.21 | 1.0 |
| 12924 | ciricote12 | 2026-05-05 | 17:46:03 | 2026-05-05 23:46:03 | 34.5 | 34.4 | 58.5 | 4.0 | 50.0 |
| 12923 | ciricote11 | 2026-05-05 | 17:46:02 | 2026-05-05 23:46:02 | 34.3 | 34.4 | 59.0 | 4.03 | 0.0 |
| 12922 | ciricote1 | 2026-05-05 | 17:45:58 | 2026-05-05 23:45:58 | 34.1 | 34.6 | 61.0 | 4.21 | 1.0 |
| 12921 | ciricote12 | 2026-05-05 | 17:31:03 | 2026-05-05 23:31:03 | 34.8 | 34.8 | 58.0 | 4.0 | 50.0 |
| 12920 | ciricote1 | 2026-05-05 | 17:31:00 | 2026-05-05 23:31:00 | 34.5 | 35.0 | 60.5 | 4.21 | 1.0 |
| 12919 | ciricote11 | 2026-05-05 | 17:30:55 | 2026-05-05 23:30:55 | 34.7 | 34.8 | 58.0 | 4.03 | 0.0 |
| 12918 | ciricote12 | 2026-05-05 | 17:16:03 | 2026-05-05 23:16:03 | 35.3 | 35.5 | 55.5 | 4.0 | 50.0 |
| 12917 | ciricote11 | 2026-05-05 | 17:15:55 | 2026-05-05 23:15:55 | 35.3 | 35.5 | 55.5 | 4.03 | 0.0 |
| 12916 | ciricote1 | 2026-05-05 | 17:15:46 | 2026-05-05 23:15:46 | 35.0 | 35.7 | 57.0 | 4.21 | 1.0 |
| 12915 | ciricote12 | 2026-05-05 | 17:00:56 | 2026-05-05 23:00:56 | 36.6 | 36.6 | 52.0 | 4.0 | 50.0 |
| 12914 | ciricote11 | 2026-05-05 | 17:00:55 | 2026-05-05 23:00:55 | 36.4 | 36.5 | 52.5 | 4.03 | 0.0 |
| 12913 | ciricote1 | 2026-05-05 | 17:00:55 | 2026-05-05 23:00:55 | 36.2 | 36.7 | 53.5 | 4.21 | 1.0 |
| 12912 | ciricote1 | 2026-05-05 | 16:46:11 | 2026-05-05 22:46:11 | 37.8 | 38.2 | 42.5 | 4.21 | 1.0 |
| 12911 | ciricote12 | 2026-05-05 | 16:45:56 | 2026-05-05 22:45:56 | 38.0 | 38.0 | 40.5 | 4.0 | 50.0 |
| 12910 | ciricote11 | 2026-05-05 | 16:45:55 | 2026-05-05 22:45:55 | 38.2 | 38.1 | 40.5 | 4.03 | 0.0 |
| 12909 | ciricote1 | 2026-05-05 | 16:31:04 | 2026-05-05 22:31:04 | 38.6 | 38.8 | 41.0 | 4.21 | 1.0 |
| 12908 | ciricote12 | 2026-05-05 | 16:30:56 | 2026-05-05 22:30:56 | 38.6 | 38.4 | 39.0 | 4.0 | 50.0 |
| 12907 | ciricote11 | 2026-05-05 | 16:30:55 | 2026-05-05 22:30:55 | 38.4 | 38.6 | 39.5 | 4.03 | 0.0 |
| 12906 | ciricote1 | 2026-05-05 | 16:15:57 | 2026-05-05 22:15:57 | 39.5 | 39.7 | 39.5 | 4.21 | 2.0 |
| 12905 | ciricote12 | 2026-05-05 | 16:15:56 | 2026-05-05 22:15:56 | 39.2 | 38.9 | 38.0 | 4.0 | 50.0 |
| 12904 | ciricote11 | 2026-05-05 | 16:15:55 | 2026-05-05 22:15:55 | 40.9 | 39.9 | 37.0 | 4.03 | 0.0 |
| 12903 | ciricote12 | 2026-05-05 | 16:00:56 | 2026-05-05 22:00:56 | 39.3 | 39.0 | 39.5 | 4.0 | 50.0 |
| 12902 | ciricote11 | 2026-05-05 | 16:00:55 | 2026-05-05 22:00:55 | 40.1 | 40.1 | 37.5 | 4.03 | 0.0 |
| 12901 | ciricote1 | 2026-05-05 | 16:00:50 | 2026-05-05 22:00:50 | 39.6 | 40.1 | 39.0 | 4.21 | 2.0 |
| 12900 | ciricote11 | 2026-05-05 | 15:46:02 | 2026-05-05 21:46:02 | 41.0 | 41.4 | 35.0 | 4.03 | 0.0 |
| 12899 | ciricote12 | 2026-05-05 | 15:45:56 | 2026-05-05 21:45:56 | 39.9 | 39.6 | 37.0 | 4.0 | 50.0 |
| 12898 | ciricote1 | 2026-05-05 | 15:45:50 | 2026-05-05 21:45:50 | 40.5 | 41.1 | 36.5 | 4.21 | 2.0 |
| 12897 | ciricote11 | 2026-05-05 | 15:31:02 | 2026-05-05 21:31:02 | 43.4 | 42.5 | 33.0 | 4.03 | 0.0 |
| 12896 | ciricote12 | 2026-05-05 | 15:30:56 | 2026-05-05 21:30:56 | 40.2 | 40.0 | 36.5 | 4.0 | 50.0 |
| 12895 | ciricote1 | 2026-05-05 | 15:30:50 | 2026-05-05 21:30:50 | 40.2 | 41.6 | 36.0 | 4.21 | 2.0 |
| 12894 | ciricote11 | 2026-05-05 | 15:16:02 | 2026-05-05 21:16:02 | 43.8 | 43.4 | 32.5 | 4.03 | 0.0 |
| 12893 | ciricote12 | 2026-05-05 | 15:15:56 | 2026-05-05 21:15:56 | 40.6 | 41.0 | 35.0 | 4.0 | 50.0 |
| 12892 | ciricote1 | 2026-05-05 | 15:15:50 | 2026-05-05 21:15:50 | 41.1 | 42.1 | 36.0 | 4.21 | 2.0 |
| 12891 | ciricote11 | 2026-05-05 | 15:01:02 | 2026-05-05 21:01:02 | 42.8 | 42.3 | 34.5 | 4.03 | 0.0 |
| 12890 | ciricote12 | 2026-05-05 | 15:00:56 | 2026-05-05 21:00:56 | 40.9 | 40.8 | 35.0 | 4.0 | 50.0 |
| 12889 | ciricote1 | 2026-05-05 | 15:00:50 | 2026-05-05 21:00:50 | 41.0 | 41.6 | 36.5 | 4.21 | 2.0 |
| 12888 | ciricote1 | 2026-05-05 | 14:46:06 | 2026-05-05 20:46:06 | 40.6 | 42.3 | 35.0 | 4.21 | 2.0 |
| 12887 | ciricote12 | 2026-05-05 | 14:46:03 | 2026-05-05 20:46:03 | 41.3 | 42.0 | 33.5 | 4.0 | 50.0 |
| 12886 | ciricote11 | 2026-05-05 | 14:46:02 | 2026-05-05 20:46:02 | 42.1 | 42.8 | 33.5 | 4.03 | 0.0 |
| 12885 | ciricote12 | 2026-05-05 | 14:31:03 | 2026-05-05 20:31:03 | 40.6 | 41.0 | 36.0 | 4.0 | 50.0 |
| 12884 | ciricote11 | 2026-05-05 | 14:31:02 | 2026-05-05 20:31:02 | 42.7 | 42.3 | 35.0 | 4.03 | 0.0 |
| 12883 | ciricote1 | 2026-05-05 | 14:30:50 | 2026-05-05 20:30:50 | 40.5 | 41.4 | 37.0 | 4.21 | 2.0 |
| 12882 | ciricote12 | 2026-05-05 | 14:15:56 | 2026-05-05 20:15:56 | 42.1 | 42.6 | 33.5 | 4.0 | 50.0 |
| 12881 | ciricote11 | 2026-05-05 | 14:15:55 | 2026-05-05 20:15:55 | 42.3 | 42.5 | 34.5 | 4.03 | 0.0 |
| 12880 | ciricote1 | 2026-05-05 | 14:15:50 | 2026-05-05 20:15:50 | 41.8 | 42.8 | 35.5 | 4.21 | 2.0 |
| 12879 | ciricote12 | 2026-05-05 | 14:01:03 | 2026-05-05 20:01:03 | 41.4 | 41.6 | 35.0 | 4.0 | 50.0 |
| 12878 | ciricote1 | 2026-05-05 | 14:00:57 | 2026-05-05 20:00:57 | 40.8 | 42.2 | 36.5 | 4.21 | 2.0 |
| 12877 | ciricote11 | 2026-05-05 | 14:00:48 | 2026-05-05 20:00:48 | 42.9 | 43.2 | 34.0 | 4.03 | 0.0 |
| 12876 | ciricote12 | 2026-05-05 | 13:46:03 | 2026-05-05 19:46:03 | 42.0 | 42.0 | 36.5 | 4.0 | 50.0 |
| 12875 | ciricote1 | 2026-05-05 | 13:45:50 | 2026-05-05 19:45:50 | 41.0 | 41.6 | 39.0 | 4.21 | 2.0 |
| 12874 | ciricote11 | 2026-05-05 | 13:45:48 | 2026-05-05 19:45:48 | 42.5 | 41.4 | 37.5 | 4.03 | 0.0 |
| 12873 | ciricote12 | 2026-05-05 | 13:31:03 | 2026-05-05 19:31:03 | 40.5 | 40.1 | 38.5 | 4.0 | 50.0 |
| 12872 | ciricote1 | 2026-05-05 | 13:30:57 | 2026-05-05 19:30:57 | 40.2 | 41.0 | 39.5 | 4.21 | 2.0 |
| 12871 | ciricote11 | 2026-05-05 | 13:30:48 | 2026-05-05 19:30:48 | 40.8 | 41.5 | 37.0 | 4.02 | 0.0 |
| 12870 | ciricote1 | 2026-05-05 | 13:15:57 | 2026-05-05 19:15:57 | 41.3 | 40.8 | 40.5 | 4.21 | 2.0 |
| 12869 | ciricote12 | 2026-05-05 | 13:15:56 | 2026-05-05 19:15:56 | 40.5 | 39.9 | 40.0 | 4.0 | 50.0 |
| 12868 | ciricote11 | 2026-05-05 | 13:15:48 | 2026-05-05 19:15:48 | 40.4 | 41.4 | 38.0 | 4.02 | 0.0 |
| 12867 | ciricote1 | 2026-05-05 | 13:01:04 | 2026-05-05 19:01:04 | 41.6 | 40.1 | 42.5 | 4.21 | 2.0 |
| 12866 | ciricote12 | 2026-05-05 | 13:00:56 | 2026-05-05 19:00:56 | 39.1 | 39.2 | 41.5 | 4.0 | 50.0 |
| 12865 | ciricote11 | 2026-05-05 | 13:00:48 | 2026-05-05 19:00:48 | 39.8 | 40.3 | 40.5 | 4.02 | 0.0 |
| 12864 | ciricote1 | 2026-05-05 | 12:46:11 | 2026-05-05 18:46:11 | 40.3 | 40.4 | 41.5 | 4.21 | 2.0 |
| 12863 | ciricote12 | 2026-05-05 | 12:46:03 | 2026-05-05 18:46:03 | 40.1 | 39.9 | 40.0 | 4.0 | 50.0 |
| 12862 | ciricote11 | 2026-05-05 | 12:45:48 | 2026-05-05 18:45:48 | 41.5 | 40.9 | 39.0 | 4.02 | 0.0 |
| 12861 | ciricote1 | 2026-05-05 | 12:31:11 | 2026-05-05 18:31:11 | 39.3 | 39.0 | 45.0 | 4.21 | 2.0 |
| 12860 | ciricote12 | 2026-05-05 | 12:31:03 | 2026-05-05 18:31:03 | 38.8 | 38.7 | 42.5 | 3.99 | 50.0 |
| 12859 | ciricote11 | 2026-05-05 | 12:30:41 | 2026-05-05 18:30:41 | 39.0 | 39.2 | 42.5 | 4.02 | 0.0 |
| 12858 | ciricote12 | 2026-05-05 | 12:16:34 | 2026-05-05 18:16:34 | 38.4 | 38.4 | 42.5 | 3.99 | 50.0 |
| 12857 | ciricote1 | 2026-05-05 | 12:16:11 | 2026-05-05 18:16:11 | 38.5 | 38.7 | 44.5 | 4.21 | 2.0 |
| 12856 | ciricote11 | 2026-05-05 | 12:16:10 | 2026-05-05 18:16:10 | 39.0 | 39.0 | 42.5 | 4.0 | 0.0 |
| 12855 | ciricote12 | 2026-05-05 | 12:16:03 | 2026-05-05 18:16:03 | 39.1 | 38.5 | 42.5 | 3.99 | 50.0 |
| 12854 | ciricote11 | 2026-05-05 | 12:15:41 | 2026-05-05 18:15:41 | 39.7 | 39.0 | 43.5 | 4.02 | 0.0 |
| 12853 | ciricote12 | 2026-05-05 | 12:01:03 | 2026-05-05 18:01:03 | 39.0 | 39.4 | 42.0 | 3.99 | 50.0 |
| 12852 | ciricote11 | 2026-05-05 | 12:00:48 | 2026-05-05 18:00:48 | 38.7 | 39.8 | 41.5 | 4.02 | 0.0 |
| 12851 | ciricote1 | 2026-05-05 | 12:00:48 | 2026-05-05 18:00:48 | 38.9 | 39.5 | 44.0 | 4.21 | 2.0 |
| 12850 | ciricote12 | 2026-05-05 | 11:46:03 | 2026-05-05 17:46:03 | 38.3 | 38.1 | 44.5 | 3.99 | 50.0 |
| 12849 | ciricote11 | 2026-05-05 | 11:45:55 | 2026-05-05 17:45:55 | 37.6 | 38.3 | 44.5 | 4.02 | 0.0 |
| 12848 | ciricote1 | 2026-05-05 | 11:45:55 | 2026-05-05 17:45:55 | 37.8 | 38.3 | 46.0 | 4.2 | 2.0 |
| 12847 | ciricote1 | 2026-05-05 | 11:31:17 | 2026-05-05 17:31:17 | 37.6 | 38.0 | 47.5 | 4.2 | 2.0 |
| 12846 | ciricote12 | 2026-05-05 | 11:30:56 | 2026-05-05 17:30:56 | 37.8 | 38.1 | 44.5 | 3.99 | 50.0 |
| 12845 | ciricote11 | 2026-05-05 | 11:30:48 | 2026-05-05 17:30:48 | 37.8 | 37.9 | 45.5 | 4.02 | 0.0 |
| 12844 | ciricote1 | 2026-05-05 | 11:30:48 | 2026-05-05 17:30:48 | 37.5 | 38.0 | 48.0 | 4.2 | 2.0 |
| 12843 | ciricote12 | 2026-05-05 | 11:15:56 | 2026-05-05 17:15:56 | 37.1 | 36.9 | 45.5 | 3.99 | 50.0 |
| 12842 | ciricote11 | 2026-05-05 | 11:15:55 | 2026-05-05 17:15:55 | 36.0 | 36.8 | 46.5 | 4.02 | 0.0 |
| 12841 | ciricote1 | 2026-05-05 | 11:15:55 | 2026-05-05 17:15:55 | 37.0 | 37.0 | 48.0 | 4.2 | 2.0 |
| 12840 | ciricote1 | 2026-05-05 | 11:01:09 | 2026-05-05 17:01:09 | 38.1 | 37.3 | 48.0 | 4.2 | 2.0 |
| 12839 | ciricote11 | 2026-05-05 | 11:00:55 | 2026-05-05 17:00:55 | 37.2 | 37.1 | 46.5 | 4.02 | 0.0 |
| 12838 | ciricote12 | 2026-05-05 | 11:00:40 | 2026-05-05 17:00:40 | 37.1 | 37.0 | 46.0 | 3.99 | 50.0 |
Página 10 de 75